Regional Weather Roundup
Issued by NWS

Home | Current Version | Previous Version | Graphics & Text | Print | Product List | Glossary On
Versions: 1 2 3 4 5 6 7 8 9 10 11 12 13 14 15 16 17 18 19 20 21 22 23 24 25 26 27 28 29 30 31 32 33 34 35 36 37 38 39 40 41 42 43 44 45 46 47 48 49 50
000
ASUS44 KMEG 311400
RWRTN
TENNESSEE HOURLY STATE WEATHER ROUNDUP
NATIONAL WEATHER SERVICE MEMPHIS TN
900 AM CDT MON AUG 31 2015

TNZ002-004-019-021-049-052-054-088>092-311500-
WEST TENNESSEE

CITY           SKY/WX    TMP DP  RH WIND       PRES   REMARKS
MEMPHIS INTL   MOSUNNY   77  67  71 SE7       30.10R
NWS MEMPHIS      N/A     75 N/A N/A MISG        N/A
JACKSON        SUNNY     70  67  90 CALM      30.13R
DYERSBURG      MOSUNNY  N/A N/A N/A MISG        N/A
UNION CITY     SUNNY    N/A N/A N/A SE3       30.12S
PARIS          MOSUNNY   70  64  83 S3        30.14S
LEXINGTON      SUNNY     72  66  83 CALM      30.12S
$$

TNZ008-025-027-028-033-062-065-066-311500-
NORTH MIDDLE TENNESSEE

CITY           SKY/WX    TMP DP  RH WIND       PRES   REMARKS
NASHVILLE      MOSUNNY   73  66  78 CALM      30.16R
CLARKSVILLE    SUNNY     73  66  78 W5        30.15R
COOKEVILLE     SUNNY     75  68  78 CALM      30.16R
CROSSVILLE     SUNNY     74  61  63 CALM      30.20S
$$

TNZ061-075-076-078-094-096-097-311500-
SOUTH MIDDLE TENNESSEE

CITY           SKY/WX    TMP DP  RH WIND       PRES   REMARKS
WINCHESTER     MOSUNNY   72  64  78 CALM      30.15S
SHELBYVILLE    SUNNY     73  68  83 CALM      30.16R
$$

TNZ017-018-042-046-047-311500-
NORTHEAST TENNESSEE

CITY           SKY/WX    TMP DP  RH WIND       PRES   REMARKS
TRI CITIES     MOSUNNY   71  64  78 SE3       30.19R
$$

TNZ012-013-036-069-073-074-311500-
CENTRAL EAST TENNESSEE

CITY           SKY/WX    TMP DP  RH WIND       PRES   REMARKS
KNOXVILLE      MOSUNNY   76  65  68 CALM      30.15S
OAK RIDGE      SUNNY     73  65  75 E5        30.17S
GATLINBURG     MOSUNNY   70  63  78 CALM      30.16S
$$

TNZ083-085-099-311500-
SOUTHEAST TENNESSEE

CITY           SKY/WX    TMP DP  RH WIND       PRES   REMARKS
CHATTANOOGA    MOSUNNY   73  66  78 N3        30.15R
$$

SKY/WX REPORTED AS FAIR MEANS FEW OR NO CLOUDS BELOW
12 THOUSAND FEET.




USA.gov is the U.S. government's official web portal to all federal, state and local government web resources and services.